Simultaneous Nadir Overpasses (SNOs) Predictions

Prediction of SNOs between LANDSAT-8 and METOP-B Satellite Orbit:

Table of predicted SNOs for the next 14.0 days since TLE Epoch: 9/22/2017
Index Date (LANDSAT-8) Time (LANDSAT-8) Lat,Lon (LANDSAT-8) SZA (LANDSAT-8 ) Date (METOP-B) Time (METOP-B) Lat,Lon (METOP-B) SZA (METOP-B ) Distance(km) Time Diff (sec)
1 09/25/2017 15:21:18 81.13, -10.17 84.50 09/25/2017 15:21:13 81.13, -10.12 84.51 0.95 5
2 09/25/2017 16:10:44 -81.15, 157.78 95.44 09/25/2017 16:11:53 -81.15, 157.71 95.42 1.45 69
3 09/28/2017 10:06:09 -81.12,-111.65 94.44 09/28/2017 10:04:57 -81.12,-111.46 94.45 3.26 72
4 09/28/2017 10:55:35 81.12, 56.06 85.59 09/28/2017 10:55:37 81.12, 55.97 85.58 1.57 2
5 09/28/2017 11:44:14 -81.81,-117.14 91.77 09/28/2017 11:45:27 -81.27,-116.73 91.93 60.53 73
6 10/01/2017 05:40:25 -81.10, -45.43 93.36 10/01/2017 05:39:20 -81.11, -45.38 93.38 0.89 65
7 10/01/2017 06:29:50 81.13, 122.61 86.72 10/01/2017 06:29:58 81.13, 122.79 86.74 3.07 8
8 10/04/2017 01:14:41 -81.11, 21.11 92.24 10/04/2017 01:13:43 -81.11, 21.05 92.27 1.13 58
9 10/04/2017 02:04:06 81.14,-170.86 87.84 10/04/2017 02:04:21 81.14,-170.78 87.85 1.47 15




NCC Satellite Simultaneous Nadir Overpasses (SNOs) Prediction Service
